EW4479 Weather Reports


time (UTC)temp
C
wind
direction
speed
KPH
gust
KPH
rain 1hr
cm
rain 24hr
cm
rain mn
cm
humidity
%
barometer
mb
20240305013010 5 263 0.0 1.6 0.00 0.00 0.00 94 1012.9
20240305012502 5 263 0.0 1.6 0.00 0.00 0.00 94 1013.0
20240305012011 5 263 0.0 0.0 0.00 0.00 0.00 94 1013.0
20240305011015 5 263 0.0 0.0 0.00 0.00 0.00 94 1013.0
20240305010502 5 263 0.0 0.0 0.00 0.00 0.00 94 1013.0
20240305010009 5 263 0.0 1.6 0.00 0.00 0.00 94 1012.9
20240305005503 5 263 0.0 3.2 0.00 0.00 0.00 94 1013.0
20240305005003 5 263 1.6 3.2 0.00 0.00 0.00 94 1013.0
20240305004502 5 263 0.0 3.2 0.00 0.00 0.00 94 1013.0
20240305004000 5 263 1.6 3.2 0.00 0.00 0.00 94 1013.0
20240305003500 5 270 0.0 1.6 0.00 0.00 0.00 94 1013.0
20240305002459 5 236 0.0 0.0 0.00 0.00 0.00 94 1013.1
20240305001957 5 236 0.0 0.0 0.00 0.00 0.00 94 1013.0
20240305001453 5 236 0.0 0.0 0.00 0.00 0.00 94 1013.0
20240305000449 5 236 0.0 0.0 0.00 0.00 0.00 94 1012.8
20240304235441 4 236 0.0 0.0 0.00 0.00 0.00 94 1012.9
20240304234938 4 236 0.0 0.0 0.00 0.00 0.00 94 1012.8
20240304234436 4 236 0.0 0.0 0.00 0.00 0.00 94 1012.8
20240304233931 4 236 0.0 0.0 0.00 0.00 0.00 94 1012.8
20240304232932 4 220 0.0 0.0 0.00 0.00 0.00 94 1012.6
20240304232432 4 220 0.0 0.0 0.00 0.00 0.00 95 1012.6
20240304231926 4 220 0.0 0.0 0.00 0.00 0.00 95 1012.5
20240304231429 4 220 0.0 0.0 0.00 0.00 0.00 95 1012.5
20240304230918 4 220 0.0 0.0 0.00 0.00 0.00 95 1012.5
20240304230418 4 220 0.0 0.0 0.00 0.00 0.00 94 1012.5
20240304225916 4 220 0.0 1.6 0.00 0.00 0.00 95 1012.5
20240304225415 4 220 0.0 3.2 0.00 0.00 0.00 95 1012.5
20240304224910 4 236 1.6 3.2 0.00 0.00 0.00 95 1012.4
20240304224406 3 220 0.0 3.2 0.00 0.00 0.00 94 1012.4
20240304223901 3 236 0.0 3.2 0.00 0.00 0.00 94 1012.3
20240304223403 4 220 1.6 4.8 0.00 0.00 0.00 95 1012.4
20240304222904 4 221 1.6 4.8 0.00 0.00 0.00 95 1012.3
20240304222404 4 198 1.6 4.8 0.00 0.00 0.00 95 1012.2
20240304221901 3 284 0.0 0.0 0.00 0.00 0.00 95 1012.2
20240304221401 3 284 0.0 3.2 0.00 0.00 0.00 95 1012.2
20240304220403 3 284 0.0 0.0 0.00 0.00 0.00 94 1012.3
20240304215402 3 284 0.0 0.0 0.00 0.00 0.00 94 1012.1
20240304214902 3 284 0.0 0.0 0.00 0.00 0.00 94 1012.1
20240304214402 3 284 0.0 0.0 0.00 0.00 0.00 94 1012.1
20240304213900 4 284 0.0 0.0 0.00 0.00 0.00 93 1012.2
20240304212901 4 284 0.0 0.0 0.00 0.00 0.00 93 1012.0
20240304212404 4 284 0.0 0.0 0.00 0.00 0.00 93 1012.0
20240304211916 4 284 0.0 0.0 0.00 0.00 0.00 93 1012.0
20240304211403 5 284 0.0 1.6 0.00 0.00 0.00 93 1012.1
20240304210901 5 284 0.0 1.6 0.00 0.00 0.00 92 1012.0
20240304210403 5 283 0.0 0.0 0.00 0.00 0.00 92 1012.0
20240304205903 5 283 0.0 0.0 0.00 0.00 0.00 92 1012.0
20240304205405 5 283 0.0 0.0 0.00 0.00 0.00 92 1012.1
20240304204402 5 283 0.0 0.0 0.00 0.00 0.00 92 1012.1
20240304203903 5 283 0.0 0.0 0.00 0.00 0.00 92 1012.1
20240304203404 6 283 0.0 0.0 0.00 0.00 0.00 91 1012.1
20240304202902 6 283 0.0 0.0 0.00 0.00 0.00 91 1012.2
20240304202402 6 283 0.0 0.0 0.00 0.00 0.00 91 1012.0
20240304201402 6 283 0.0 0.0 0.00 0.00 0.00 91 1012.0
20240304200901 6 283 0.0 0.0 0.00 0.00 0.00 91 1012.0
20240304200401 6 283 0.0 0.0 0.00 0.00 0.00 91 1012.1
20240304195901 6 283 0.0 0.0 0.00 0.00 0.00 91 1012.0
20240304195401 6 283 0.0 0.0 0.00 0.00 0.00 91 1012.0
20240304194901 6 283 0.0 0.0 0.00 0.00 0.00 91 1012.1
20240304193900 6 283 0.0 0.0 0.00 0.00 0.00 91 1012.1
20240304192905 6 283 0.0 0.0 0.00 0.00 0.00 90 1012.1
20240304191902 6 283 0.0 0.0 0.00 0.00 0.00 90 1012.0
20240304191400 6 283 0.0 0.0 0.00 0.00 0.00 90 1012.1
20240304190903 6 283 0.0 0.0 0.00 0.00 0.00 90 1012.1
20240304190401 7 283 0.0 3.2 0.00 0.00 0.00 89 1012.0
20240304185902 7 283 0.0 3.2 0.00 0.00 0.00 90 1012.0
20240304184903 7 302 0.0 1.6 0.00 0.00 0.00 89 1011.9
20240304184401 7 303 0.0 3.2 0.00 0.00 0.00 89 1012.0
20240304183402 7 302 0.0 3.2 0.00 0.00 0.00 89 1011.9
20240304182901 7 286 0.0 3.2 0.00 0.00 0.00 89 1011.9
20240304181900 7 294 0.0 0.0 0.00 0.00 0.00 89 1011.8
20240304181400 7 294 0.0 0.0 0.00 0.00 0.00 89 1011.8
20240304180903 7 294 0.0 0.0 0.00 0.00 0.00 89 1011.7
20240304180404 7 294 0.0 1.6 0.00 0.00 0.00 89 1011.7
20240304175908 7 294 0.0 1.6 0.00 0.00 0.00 88 1011.7
20240304175404 7 294 0.0 1.6 0.00 0.00 0.00 88 1011.7
20240304174903 7 294 0.0 1.6 0.00 0.00 0.00 88 1011.6
20240304174402 7 304 0.0 3.2 0.00 0.00 0.00 88 1011.7
20240304173903 7 281 0.0 3.2 0.00 0.00 0.00 88 1011.6
20240304173402 7 318 0.0 4.8 0.00 0.00 0.00 88 1011.5
20240304172903 7 331 0.0 4.8 0.00 0.00 0.00 88 1011.5
20240304172407 7 280 0.0 3.2 0.00 0.00 0.00 88 1011.4
20240304171903 7 336 0.0 3.2 0.00 0.00 0.00 87 1011.3
20240304171402 7 343 0.0 3.2 0.00 0.00 0.00 87 1011.4
20240304170903 7 299 0.0 4.8 0.00 0.00 0.00 87 1011.3
20240304165903 7 325 0.0 3.2 0.00 0.00 0.00 87 1011.4
20240304165400 7 331 1.6 4.8 0.00 0.00 0.00 86 1011.3
20240304164903 7 299 1.6 4.8 0.00 0.00 0.00 86 1011.3
20240304164401 7 298 1.6 6.4 0.00 0.00 0.00 86 1011.2
20240304163859 7 288 0.0 6.4 0.00 0.00 0.00 86 1011.2
20240304162849 7 300 0.0 4.8 0.00 0.00 0.00 85 1011.0
20240304162347 7 288 1.6 4.8 0.00 0.00 0.00 85 1011.1
20240304161845 7 272 0.0 9.7 0.00 0.00 0.00 85 1010.9
20240304161346 7 0 3.2 9.7 0.00 0.00 0.00 85 1010.9
20240304160846 7 304 0.0 8.0 0.00 0.00 0.00 85 1010.7
20240304160338 7 281 1.6 9.7 0.00 0.00 0.00 84 1010.7
20240304155340 7 305 3.2 8.0 0.00 0.00 0.00 85 1010.6
20240304154831 8 322 3.2 8.0 0.00 0.00 0.00 84 1010.7
20240304154329 8 294 0.0 4.8 0.00 0.00 0.00 85 1010.6
20240304153330 7 305 3.2 11.3 0.00 0.00 0.00 84 1010.6
20240304152329 7 336 3.2 9.7 0.00 0.00 0.00 85 1010.5
20240304151827 8 323 0.0 9.7 0.00 0.00 0.00 86 1010.5
20240304151323 7 297 4.8 9.7 0.00 0.00 0.00 85 1010.5
20240304150820 8 344 3.2 8.0 0.00 0.00 0.00 84 1010.6
20240304150317 8 292 3.2 11.3 0.00 0.00 0.00 84 1010.5
20240304145817 8 304 4.8 11.3 0.00 0.00 0.00 84 1010.5
20240304145310 8 302 1.6 8.0 0.00 0.00 0.00 84 1010.6
20240304144811 8 327 3.2 8.0 0.00 0.00 0.00 84 1010.5
20240304144304 8 274 3.2 8.0 0.00 0.00 0.00 84 1010.5
20240304143804 8 261 3.2 11.3 0.00 0.00 0.00 85 1010.4
20240304143303 7 277 4.8 12.9 0.00 0.00 0.00 85 1010.4
20240304142802 7 295 4.8 12.9 0.00 0.00 0.00 85 1010.4
20240304142306 8 316 3.2 6.4 0.00 0.00 0.00 85 1010.6
20240304141800 8 259 1.6 8.0 0.00 0.00 0.00 85 1010.5
20240304141301 8 304 3.2 16.1 0.00 0.00 0.00 85 1010.6
20240304140802 8 302 4.8 16.1 0.00 0.00 0.00 85 1010.6
20240304140301 8 340 6.4 16.1 0.00 0.00 0.00 84 1010.6
20240304135800 8 314 3.2 9.7 0.00 0.00 0.00 84 1010.6
20240304135301 8 312 3.2 8.0 0.00 0.00 0.00 84 1010.6
20240304133801 8 286 1.6 12.9 0.00 0.00 0.00 84 1010.7
20240304133301 8 335 3.2 12.9 0.00 0.00 0.00 83 1010.7
20240304132801 8 309 4.8 12.9 0.00 0.00 0.00 83 1010.6
20240304131801 8 289 6.4 14.5 0.00 0.00 0.00 83 1010.5
20240304130802 8 323 4.8 9.7 0.00 0.00 0.00 82 1010.5
20240304130302 8 324 4.8 12.9 0.00 0.00 0.00 83 1010.5
20240304125801 8 307 6.4 14.5 0.00 0.00 0.00 83 1010.5
20240304125301 8 292 4.8 14.5 0.00 0.00 0.00 83 1010.5
20240304124301 8 313 4.8 16.1 0.00 0.00 0.00 83 1010.6
20240304123801 8 305 4.8 14.5 0.00 0.00 0.00 83 1010.6
20240304123301 8 355 6.4 16.1 0.00 0.00 0.00 83 1010.6
20240304122801 8 302 8.0 16.1 0.00 0.00 0.00 82 1010.6
20240304122300 8 250 4.8 16.1 0.00 0.00 0.00 83 1010.6
20240304121800 8 260 3.2 16.1 0.00 0.00 0.00 83 1010.6
20240304121301 8 284 3.2 12.9 0.00 0.00 0.00 82 1010.7
20240304120801 8 269 4.8 16.1 0.00 0.00 0.00 82 1010.6
20240304120302 8 271 8.0 16.1 0.00 0.00 0.00 82 1010.6
20240304115801 8 257 6.4 12.9 0.00 0.00 0.00 82 1010.6
20240304115300 8 308 4.8 12.9 0.00 0.00 0.00 82 1010.6
20240304114801 8 328 3.2 12.9 0.00 0.00 0.00 82 1010.9
20240304114303 8 13 6.4 14.5 0.00 0.00 0.00 82 1010.7
20240304113804 8 248 6.4 14.5 0.00 0.00 0.00 83 1010.5
20240304113303 8 234 6.4 12.9 0.00 0.00 0.00 83 1010.6
20240304112301 8 277 4.8 12.9 0.00 0.00 0.00 83 1010.5
20240304111304 8 313 6.4 14.5 0.00 0.00 0.00 84 1010.5
20240304110801 8 254 6.4 16.1 0.00 0.00 0.00 84 1010.5
20240304110302 8 286 8.0 16.1 0.00 0.00 0.00 83 1010.5
20240304105801 8 301 4.8 12.9 0.00 0.00 0.00 83 1010.6
20240304105305 8 355 4.8 12.9 0.00 0.00 0.00 84 1010.6
20240304104304 8 342 6.4 16.1 0.00 0.00 0.00 84 1010.5
20240304103802 8 337 4.8 16.1 0.00 0.00 0.00 85 1010.5
20240304103303 7 286 3.2 12.9 0.00 0.00 0.00 85 1010.5
20240304102802 7 245 6.4 11.3 0.00 0.00 0.00 85 1010.5
20240304102305 7 265 3.2 12.9 0.00 0.00 0.00 86 1010.5
20240304101802 7 324 4.8 12.9 0.00 0.00 0.00 85 1010.4
20240304101304 7 278 3.2 14.5 0.00 0.00 0.00 86 1010.4
20240304100804 7 282 4.8 14.5 0.00 0.00 0.00 86 1010.2
20240304100303 7 241 6.4 11.3 0.00 0.00 0.00 86 1010.2
20240304095801 7 262 4.8 9.7 0.00 0.00 0.00 86 1010.3
20240304095305 7 272 3.2 9.7 0.00 0.00 0.00 87 1010.2
20240304094800 7 265 3.2 9.7 0.00 0.00 0.00 87 1010.2
20240304094303 7 253 3.2 9.7 0.00 0.00 0.00 87 1010.0
20240304093305 7 261 4.8 11.3 0.00 0.00 0.00 88 1010.1
20240304092800 7 266 6.4 14.5 0.00 0.00 0.00 88 1010.1
20240304092305 7 318 4.8 14.5 0.00 0.00 0.00 88 1010.1
20240304091302 7 326 3.2 11.3 0.00 0.00 0.00 88 1009.9
20240304090801 6 308 3.2 11.3 0.00 0.00 0.00 89 1009.8
20240304090302 6 284 3.2 14.5 0.00 0.00 0.00 88 1009.9
20240304085801 6 267 4.8 14.5 0.00 0.00 0.00 88 1009.8
20240304085305 6 245 3.2 9.7 0.00 0.00 0.00 89 1009.8
20240304084801 6 282 1.6 9.7 0.00 0.00 0.00 89 1009.8
20240304084304 6 253 1.6 11.3 0.00 0.00 0.00 89 1009.8
20240304083302 6 247 3.2 9.7 0.00 0.00 0.00 89 1009.6
20240304082800 6 274 3.2 14.5 0.00 0.00 0.00 89 1009.6
20240304082309 6 334 6.4 14.5 0.00 0.00 0.00 89 1009.6
20240304081800 6 269 3.2 9.7 0.00 0.00 0.00 90 1009.5
20240304081302 6 239 3.2 8.0 0.00 0.00 0.00 90 1009.6
20240304080801 6 253 1.6 6.4 0.00 0.00 0.00 90 1009.5
20240304080303 6 265 3.2 6.4 0.00 0.00 0.00 90 1009.4
20240304075801 6 246 3.2 6.4 0.00 0.00 0.00 90 1009.5
20240304075305 6 279 1.6 6.4 0.00 0.00 0.00 90 1009.3
20240304074802 6 256 1.6 6.4 0.00 0.00 0.00 90 1009.3
20240304073803 6 270 3.2 8.0 0.00 0.00 0.00 90 1009.2
20240304073301 6 253 3.2 11.3 0.00 0.00 0.00 90 1009.2
20240304072801 6 252 3.2 11.3 0.00 0.00 0.00 90 1009.0
20240304072301 6 257 3.2 9.7 0.00 0.00 0.00 90 1008.8
20240304071801 6 269 1.6 8.0 0.00 0.00 0.00 91 1008.7
20240304071301 6 264 3.2 14.5 0.00 0.00 0.00 91 1008.6
20240304070801 5 260 4.8 14.5 0.00 0.00 0.00 91 1008.6
20240304070301 5 279 3.2 11.3 0.00 0.00 0.00 91 1008.4
20240304065801 5 262 3.2 11.3 0.00 0.00 0.00 91 1008.4
20240304065300 5 280 4.8 9.7 0.00 0.00 0.00 91 1008.3
20240304064800 5 261 4.8 11.3 0.00 0.00 0.00 91 1008.4
20240304064303 5 248 4.8 11.3 0.00 0.00 0.00 91 1008.1
20240304063804 5 261 4.8 11.3 0.00 0.00 0.00 91 1008.1
20240304062804 5 267 4.8 9.7 0.00 0.00 0.00 91 1008.1
20240304062257 5 251 3.2 14.5 0.00 0.00 0.00 91 1008.0
20240304061752 5 248 3.2 14.5 0.00 0.00 0.00 91 1008.0
20240304061251 5 242 4.8 12.9 0.00 0.00 0.00 91 1008.0
20240304060751 5 278 4.8 9.7 0.00 0.00 0.00 91 1008.1
20240304060247 5 263 3.2 16.1 0.00 0.00 0.00 91 1008.0
20240304055239 4 261 6.4 16.1 0.00 0.00 0.00 91 1007.7
20240304054738 4 242 8.0 16.1 0.00 0.00 0.00 91 1007.6
20240304053735 4 252 6.4 16.1 0.00 0.00 0.00 91 1007.3
20240304053232 4 246 4.8 12.9 0.00 0.00 0.00 90 1007.2
20240304052731 4 309 4.8 12.9 0.00 0.00 0.00 90 1007.2
20240304052229 4 285 4.8 12.9 0.00 0.00 0.00 90 1007.1
20240304051734 4 259 3.2 11.3 0.00 0.00 0.00 90 1007.1
20240304051231 4 223 6.4 11.3 0.00 0.00 0.00 89 1007.0
20240304050731 4 308 6.4 14.5 0.00 0.00 0.00 89 1006.8
20240304045728 4 331 6.4 19.3 0.00 0.00 0.00 89 1006.5
20240304044728 4 237 4.8 11.3 0.00 0.00 0.00 88 1006.3
20240304044229 4 263 1.6 9.7 0.00 0.00 0.00 87 1006.2
20240304043729 4 263 4.8 11.3 0.00 0.00 0.00 87 1006.1
20240304043228 4 258 4.8 11.3 0.00 0.00 0.00 87 1005.9
20240304042729 4 308 4.8 11.3 0.00 0.00 0.00 86 1005.8
20240304042229 4 281 4.8 8.0 0.00 0.00 0.00 85 1005.7
20240304041730 4 253 3.2 9.7 0.00 0.00 0.00 85 1005.6
20240304041229 4 280 3.2 12.9 0.00 0.00 0.00 84 1005.6
20240304040228 4 242 3.2 6.4 0.00 0.00 0.00 82 1005.4
20240304035724 4 260 3.2 9.7 0.00 0.00 0.00 82 1005.4
20240304035220 4 258 3.2 9.7 0.00 0.00 0.00 81 1005.3
20240304034716 4 258 3.2 6.4 0.00 0.00 0.00 80 1005.1
20240304034211 4 244 3.2 9.7 0.00 0.00 0.00 79 1004.9
20240304033710 4 283 4.8 9.7 0.00 0.00 0.00 78 1004.9
20240304033207 4 248 3.2 9.7 0.00 0.00 0.00 77 1004.9
20240304032202 4 253 3.2 8.0 0.00 0.00 0.00 77 1004.8
20240304031704 4 257 1.6 4.8 0.00 0.00 0.00 77 1004.6
20240304031203 4 248 1.6 4.8 0.00 0.00 0.00 76 1004.6
20240304030202 3 262 3.2 8.0 0.00 0.00 0.00 76 1004.4
20240304025705 3 263 0.0 4.8 0.00 0.00 0.00 76 1004.4
20240304025202 3 218 0.0 0.0 0.00 0.00 0.00 76 1004.4
20240304024703 3 203 0.0 0.0 0.00 0.00 0.00 77 1004.4
20240304024202 3 203 0.0 0.0 0.00 0.00 0.00 78 1004.3
20240304023702 3 203 0.0 0.0 0.00 0.00 0.00 79 1004.2
20240304023200 2 203 0.0 0.0 0.00 0.00 0.00 82 1004.2
20240304022701 2 203 0.0 0.0 0.00 0.00 0.00 81 1004.1
20240304022201 3 203 0.0 0.0 0.00 0.00 0.00 79 1004.2
20240304021702 3 203 0.0 0.0 0.00 0.00 0.00 79 1004.1
20240304021201 3 216 0.0 0.0 0.00 0.00 0.00 81 1004.0
20240304020201 3 216 0.0 0.0 0.00 0.00 0.00 82 1004.0
20240304015703 3 216 0.0 0.0 0.00 0.00 0.00 82 1004.0
20240304014702 2 216 0.0 1.6 0.00 0.00 0.00 83 1003.9
20240304014203 2 216 0.0 1.6 0.00 0.00 0.00 83 1003.8
20240304013704 3 216 0.0 1.6 0.00 0.00 0.00 80 1003.8
20240304013203 3 216 0.0 0.0 0.00 0.00 0.00 79 1003.9